{"data":{"norad_id":57513,"intl_designator":"2023-113U","name":"STARLINK-30168","alt_names":[],"object_type":"PAYLOAD","status":"ACTIVE","operator":null,"country":"US","launch_date":"2023-08-07","launch_site_code":"AFETR","launch_vehicle":null,"mission":null,"orbit_class":"UNKNOWN","rcs_meters":null,"size_class":null,"mass_kg":null,"dimensions":null,"purposes":["comms"],"wikipedia_slug":null,"has_3d_model":false,"image_url":null,"decayed_at":null,"tle_current":{"epoch":"2026-09-20T07:32:29.355360Z","epoch_age_seconds":143732,"freshness":"FRESH","line1":"1 57513U 23113U   26263.31422865 -.00000156  00000+0  38405-5 0  9998","line2":"2 57513  43.0048 356.6381 0001345 273.4182  86.6515 15.27578311173286","mean_motion":15.27578311,"eccentricity":0.0001345,"inclination_deg":43.0048,"raan_deg":356.6381,"arg_perigee_deg":273.4182,"mean_anomaly_deg":86.6515,"bstar":3.8405e-6,"rev_number":17328,"period_min":94.266852941721,"perigee_km":482.13132330778,"apogee_km":483.97698372807,"semimajor_km":6861.1911535179,"source":"CELESTRAK","updated_at":"2026-09-21T09:00:33.635760Z"}}}